TimeEST,TemperatureF,Dew PointF,Humidity,Sea Level PressureIn,VisibilityMPH,Wind Direction,Wind SpeedMPH,Gust SpeedMPH,PrecipitationIn,Events,Conditions,WindDirDegrees,DateUTC
12:35 AM,41.0,37.4,87,29.68,4.0,East,11.5,20.7,N/A,,Overcast,100,2013-03-06 05:35:00
12:55 AM,40.6,38.8,93,29.65,3.0,East,15.0,18.4,0.23,,Overcast,80,2013-03-06 05:55:00
1:55 AM,41.7,39.9,93,29.62,7.0,East,13.8,21.9,0.11,,Light Drizzle,90,2013-03-06 06:55:00
2:10 AM,42.8,41.0,93,29.62,10.0,East,16.1,24.2,N/A,Rain,Light Rain,100,2013-03-06 07:10:00
2:55 AM,43.5,41.5,93,29.56,10.0,East,12.7,24.2,0.05,Rain,Light Rain,100,2013-03-06 07:55:00
3:02 AM,44.6,42.8,93,29.55,10.0,East,12.7,19.6,N/A,,Overcast,100,2013-03-06 08:02:00
3:09 AM,44.6,42.8,93,29.53,10.0,East,10.4,-,N/A,,Overcast,90,2013-03-06 08:09:00
3:46 AM,44.6,42.8,93,29.49,10.0,East,13.8,24.2,N/A,,Overcast,90,2013-03-06 08:46:00
3:55 AM,45.0,43.2,93,29.48,10.0,East,13.8,21.9,0.00,,Overcast,90,2013-03-06 08:55:00
4:04 AM,44.6,42.8,93,29.47,10.0,ESE,13.8,21.9,N/A,,Overcast,110,2013-03-06 09:04:00
4:55 AM,46.0,44.2,93,29.44,10.0,East,11.5,20.7,N/A,,Overcast,90,2013-03-06 09:55:00
5:05 AM,46.4,44.6,93,29.44,10.0,East,16.1,23.0,N/A,,Overcast,90,2013-03-06 10:05:00
5:13 AM,46.4,44.6,93,29.44,8.0,ESE,11.5,23.0,N/A,Rain,Light Rain,110,2013-03-06 10:13:00
5:23 AM,46.4,44.6,93,29.43,10.0,East,12.7,19.6,N/A,,Overcast,90,2013-03-06 10:23:00
5:34 AM,46.4,44.6,93,29.43,10.0,East,8.1,-,N/A,Rain,Light Rain,100,2013-03-06 10:34:00
5:53 AM,46.4,44.6,93,29.41,10.0,East,12.7,18.4,N/A,,Overcast,100,2013-03-06 10:53:00
5:55 AM,46.9,44.6,92,29.41,10.0,ESE,9.2,18.4,0.04,,Overcast,110,2013-03-06 10:55:00
6:19 AM,48.2,44.6,87,29.39,10.0,East,9.2,-,N/A,,Overcast,100,2013-03-06 11:19:00
6:55 AM,47.7,45.0,90,29.37,10.0,East,9.2,-,N/A,,Overcast,100,2013-03-06 11:55:00
7:05 AM,48.2,44.6,87,29.37,10.0,SE,8.1,-,N/A,,Overcast,140,2013-03-06 12:05:00
7:16 AM,48.2,44.6,87,29.36,6.0,South,4.6,-,N/A,,Overcast,190,2013-03-06 12:16:00
7:17 AM,48.2,44.6,87,29.36,6.0,SSW,4.6,-,N/A,Rain,Light Rain,200,2013-03-06 12:17:00
7:27 AM,48.2,44.6,87,29.35,10.0,SE,6.9,-,N/A,,Overcast,130,2013-03-06 12:27:00
7:28 AM,48.2,44.6,87,29.35,10.0,SE,6.9,-,N/A,Rain,Light Rain,130,2013-03-06 12:28:00
7:55 AM,45.9,43.5,92,29.36,8.0,WSW,10.4,17.3,0.09,Rain,Light Rain,240,2013-03-06 12:55:00
8:14 AM,42.8,39.2,87,29.37,10.0,SW,10.4,18.4,N/A,,Overcast,230,2013-03-06 13:14:00
8:55 AM,38.3,36.1,92,29.37,10.0,SW,15.0,20.7,0.01,,Overcast,220,2013-03-06 13:55:00
9:55 AM,36.7,34.0,90,29.37,10.0,SW,9.2,-,N/A,,Overcast,230,2013-03-06 14:55:00
10:55 AM,36.9,34.2,90,29.34,10.0,WSW,10.4,-,N/A,,Overcast,240,2013-03-06 15:55:00
11:36 AM,37.4,33.8,87,29.33,10.0,WSW,6.9,-,N/A,,Overcast,250,2013-03-06 16:36:00
11:54 AM,37.4,33.8,87,29.31,2.0,WSW,8.1,-,N/A,,Light Drizzle,250,2013-03-06 16:54:00
11:55 AM,37.2,34.3,89,29.32,2.0,WSW,8.1,-,0.00,,Light Drizzle,250,2013-03-06 16:55:00
12:11 PM,37.4,35.6,93,29.32,2.0,Variable,4.6,-,N/A,,Drizzle,0,2013-03-06 17:11:00
12:33 PM,37.4,37.4,100,29.32,2.0,WNW,5.8,-,N/A,,Light Drizzle,300,2013-03-06 17:33:00
12:41 PM,39.2,37.4,93,29.31,2.0,NW,4.6,-,N/A,,Light Drizzle,310,2013-03-06 17:41:00
12:55 PM,40.1,38.7,95,29.31,2.0,NNW,9.2,-,0.02,,Light Drizzle,340,2013-03-06 17:55:00
1:08 PM,41.0,39.2,93,29.31,2.0,NNW,15.0,26.5,N/A,,Light Drizzle,340,2013-03-06 18:08:00
1:23 PM,41.0,39.2,93,29.33,4.0,North,17.3,32.2,N/A,Rain,Light Rain,350,2013-03-06 18:23:00
1:55 PM,38.1,34.9,88,29.35,4.0,NNW,17.3,31.1,0.01,Rain,Light Rain,340,2013-03-06 18:55:00
2:55 PM,37.4,34.5,89,29.42,3.0,NNW,16.1,28.8,0.02,Rain-Snow,Light Rain,340,2013-03-06 19:55:00
3:55 PM,37.6,34.9,90,29.50,4.0,North,18.4,29.9,0.03,Rain-Snow,Light Rain,350,2013-03-06 20:55:00
4:55 PM,38.1,34.9,88,29.57,4.0,NNW,18.4,29.9,0.02,Rain,Light Rain,340,2013-03-06 21:55:00
5:55 PM,38.1,34.7,87,29.65,10.0,NNW,24.2,36.8,0.07,Rain-Snow,Light Rain,340,2013-03-06 22:55:00
6:55 PM,38.3,34.9,87,29.73,10.0,North,19.6,40.3,0.07,,Overcast,350,2013-03-06 23:55:00
7:55 PM,38.5,35.1,87,29.79,10.0,NNW,19.6,33.4,0.06,,Mostly Cloudy,340,2013-03-07 00:55:00
8:45 PM,39.2,35.6,87,29.82,10.0,NNW,17.3,36.8,N/A,Rain,Light Rain,340,2013-03-07 01:45:00
8:55 PM,39.6,35.2,85,29.83,10.0,North,21.9,35.7,0.01,Rain,Light Rain,350,2013-03-07 01:55:00
9:55 PM,39.9,35.6,85,29.86,10.0,North,19.6,27.6,0.01,,Light Drizzle,350,2013-03-07 02:55:00
10:25 PM,41.0,35.6,81,29.88,10.0,NNW,13.8,25.3,N/A,,Overcast,340,2013-03-07 03:25:00
10:55 PM,40.5,34.5,79,29.89,10.0,North,17.3,34.5,0.00,,Overcast,350,2013-03-07 03:55:00
11:16 PM,41.0,33.8,76,29.89,10.0,North,16.1,31.1,N/A,,Overcast,350,2013-03-07 04:16:00
11:55 PM,40.6,33.1,74,29.90,10.0,NNW,13.8,26.5,N/A,,Mostly Cloudy,330,2013-03-07 04:55:00